User: anonymous   Login
Location: Clifton Park
(41.4873°N, 81.8024°W)
Time: 12:27:30
(UTC+00:00)
Language:

STARLINK-1048 - Orbit

View from above orbital plane
View from above orbital plane
View from above satellite
View from above satellite

Ground track
Ground track

The orbit data is extracted from the following two-line orbital elements,

1 44753C 19074AS  20089.19457203  .00010233  00000-0  70052-3 0   890
2 44753  53.0006 214.8442 0001307  88.2180  13.7135 15.05590130    12
Epoch (UTC): 29 March 2020 04:40:11
Eccentricity: 0.0001307
inclination: 53.0006°
perigee height: 549 km
apogee height: 550 km
right ascension of ascending node: 214.8442°
argument of perigee: 88.2180°
revolutions per day: 15.05590130
mean anomaly at epoch: 13.7135°
orbit number at epoch: 1

The dashed part of the orbit path shows where the satellite is in the earth's shadow,  

DLR